"2009-02-16 00:00:00",633949,4.885,98.7,8.82,1.172,5.711,101.7664,3.807,4.894,20.86,0,109.9,13.41,4.57,60.7
"2009-02-16 00:00:30",633950,5.272,90.8,6.391,1.231,5.883,101.7687,3.813,4.883,21.04,0,109.9,13.41,4.58,52.8
"2009-02-16 00:01:00",633951,4.601,85.6,8.36,0.958,4.975,101.7617,3.795,4.834,21.26,0,109.9,13.41,4.56,47.6
"2009-02-16 00:01:30",633952,4.988,86.2,8.29,1.29,6.138,101.7434,3.748,4.91,21.68,0,109.9,13.42,4.51,48.2
"2009-02-16 00:02:00",633953,5.764,109.8,8.43,1.373,7.525,101.7483,3.761,4.943,21.56,0,109.9,13.42,4.53,71.8
"2009-02-16 00:02:30",633954,4.459,122.2,8.38,1.183,7.372,101.7523,3.771,4.795,20.73,0,109.9,13.42,4.54,84.2
"2009-02-16 00:03:00",633955,4.398,116.5,7.727,1.245,6.307,101.76,3.79,4.897,20.72,0,109.9,13.42,4.56,78.5
"2009-02-16 00:03:30",633956,3.165,122.7,7.729,1.136,3.877,101.7629,3.798,4.736,21.09,0,109.9,13.42,4.56,84.7
"2009-02-16 00:04:00",633957,2.494,140.8,9.97,0.545,3.645,101.7607,3.792,4.743,20.86,0,109.9,13.45,4.56,102.8
"2009-02-16 00:04:30",633958,4.056,120.9,7.041,1.402,7.177,101.7709,3.818,4.894,20.64,0,109.9,13.42,4.58,82.9
"2009-02-16 00:05:00",633959,5.636,112.4,8.07,1.152,7.615,101.7774,3.835,4.943,20.69,0,109.9,13.42,4.60,74.4
"2009-02-16 00:05:30",633960,2.835,97.7,12.14,0.77,4.812,101.7754,3.83,4.798,20.47,0,109.9,13.42,4.60,59.7
"2009-02-16 00:06:00",633961,4.487,110.5,10.75,1.032,7.381,101.7757,3.83,4.834,20.64,0,109.9,13.42,4.60,72.5
"2009-02-16 00:06:30",633962,2.655,110,12.36,0.924,3.601,101.7754,3.83,4.778,20.45,0,109.9,13.42,4.60,72.0
"2009-02-16 00:07:00",633963,4.064,108.8,13.3,1.201,5.776,101.7768,3.833,4.757,20.6,0,109.9,13.42,4.60,70.8
"2009-02-16 00:07:30",633964,3.842,83.5,7.957,1.079,3.909,101.7649,3.803,4.742,20.97,0,109.9,13.42,4.57,45.5
"2009-02-16 00:08:00",633965,5.718,93,10.71,1.145,7.692,101.7596,3.789,4.914,21.82,0,109.9,13.42,4.55,55.0
"2009-02-16 00:08:30",633966,5.942,94.4,7.113,1.291,8.27,101.7361,3.729,4.963,22.06,0,109.9,13.42,4.49,56.4
"2009-02-16 00:09:00",633967,5.127,88.8,10.96,1.374,6.604,101.7282,3.709,4.802,22.25,0,109.9,13.42,4.47,50.8
"2009-02-16 00:09:30",633968,4.116,98.6,21.24,1.232,5.687,101.698,3.632,4.78,22.93,0,109.9,13.42,4.40,60.6
"2009-02-16 00:10:00",633969,3.881,125.3,7.51,1.511,4.561,101.6943,3.623,4.587,21.78,0,109.9,13.42,4.39,87.3
"2009-02-16 00:10:30",633970,4.27,103.5,21.32,0.716,4.876,101.6943,3.623,4.602,21.65,0,109.9,13.42,4.39,65.5
"2009-02-16 00:11:00",633971,5.218,120.1,18.48,1.155,7.187,101.6938,3.621,4.78,22.16,0,109.9,13.42,4.39,82.1
"2009-02-16 00:11:30",633972,4.233,139.2,10.05,1.266,7.308,101.6839,3.596,4.754,22.15,0,109.9,13.42,4.36,101.2
"2009-02-16 00:12:00",633973,2.741,169.8,12.99,0.818,4.555,101.6715,3.564,4.672,22.18,0,109.9,13.43,4.33,131.8
"2009-02-16 00:12:30",633974,4.008,155.2,12.01,1.198,5.8,101.661,3.538,4.665,22.43,0,109.9,13.43,4.30,117.2
"2009-02-16 00:13:00",633975,1.907,135.5,49.85,1.066,4.176,101.6622,3.541,4.591,22.3,0,109.9,13.44,4.31,97.5
"2009-02-16 00:13:30",633976,1.718,129.9,30,1.048,4.382,101.6659,3.55,4.513,21.84,0,109.9,13.43,4.31,91.9
"2009-02-16 00:14:00",633977,3.091,188.4,20.05,1.301,7.279,101.6671,3.553,4.74,22.21,0,109.9,13.43,4.32,150.4
"2009-02-16 00:14:30",633978,3.895,190.6,11.8,1.074,6.434,101.6643,3.546,4.627,22.16,0,109.9,13.44,4.31,152.6
"2009-02-16 00:15:00",633979,4.232,203,17.65,1.212,6.098,101.6598,3.535,4.616,21.85,0,109.9,13.44,4.30,165.0
"2009-02-16 00:15:30",633980,4.68,194.4,21.54,1.248,4.978,101.6633,3.543,4.56,21.46,0,109.9,13.44,4.31,156.4
"2009-02-16 00:16:00",633981,4.551,163.6,10.47,1.243,4.922,101.6764,3.577,4.582,20.96,0,109.9,13.44,4.34,125.6
"2009-02-16 00:16:30",633982,6.849,188.1,5.19,0.71,8.71,101.6863,3.602,4.604,20.53,0,109.9,13.44,4.37,150.1
"2009-02-16 00:17:00",633983,6.203,178,6.974,1.304,7.79,101.6895,3.61,4.708,20.71,0,109.9,13.44,4.38,140.0
"2009-02-16 00:17:30",633984,5.083,171.2,8.35,1.285,6.883,101.6935,3.621,4.673,21.09,0,109.9,13.44,4.39,133.2
"2009-02-16 00:18:00",633985,4.039,173.2,7.869,1.111,5.804,101.6941,3.622,4.575,21.6,0,109.8,13.44,4.39,135.2
"2009-02-16 00:18:30",633986,3.599,166.8,8.07,0.963,4.286,101.6918,3.616,4.59,20.97,0,109.8,13.44,4.38,128.8
"2009-02-16 00:19:00",633987,3.991,176.1,7.934,1.142,4.946,101.6941,3.622,4.445,20.49,0,109.8,13.44,4.39,138.1
"2009-02-16 00:19:30",633988,4.384,174.1,17.81,1.59,6.755,101.6949,3.624,4.748,20.88,0,109.8,13.44,4.39,136.1
"2009-02-16 00:20:00",633989,4.88,200.8,10.2,0.918,7.75,101.6915,3.616,4.669,21.17,0,109.8,13.44,4.38,162.8
"2009-02-16 00:20:30",633990,4.02,183.9,12.79,1.048,6.491,101.6782,3.582,4.588,21.3,0,109.8,13.44,4.35,145.9
"2009-02-16 00:21:00",633991,3.896,175.1,6.718,0.92,4.577,101.6811,3.589,4.61,20.57,0,109.8,13.44,4.35,137.1
"2009-02-16 00:21:30",633992,4.161,171.1,9.55,1.675,5.176,101.6876,3.606,4.48,20.34,0,109.8,13.44,4.37,133.1
"2009-02-16 00:22:00",633993,2.381,168.3,9.81,0.289,3.564,101.6845,3.598,4.535,20.73,0,109.8,13.48,4.36,130.3
"2009-02-16 00:22:30",633994,4.468,176.8,12.46,1.286,7.424,101.6734,3.569,4.687,20.74,0,109.8,13.45,4.33,138.8
"2009-02-16 00:23:00",633995,4.7,183,8.53,1.133,8.1,101.6613,3.538,4.734,20.51,0,109.8,13.44,4.30,145.0
"2009-02-16 00:23:30",633996,4.101,184,8.25,1.302,7.014,101.6613,3.538,4.658,20.36,0,109.8,13.44,4.30,146.0
"2009-02-16 00:24:00",633997,4.585,190.4,9.48,1.087,7.47,101.6625,3.541,4.66,20.24,0,109.8,13.44,4.31,152.4
"2009-02-16 00:24:30",633998,3.59,184,7.2,1.157,4.542,101.6685,3.557,4.48,20.19,0,109.8,13.44,4.32,146.0
"2009-02-16 00:25:00",633999,4.12,180.9,5.159,1.424,5.497,101.6719,3.566,4.553,20.37,0,109.8,13.44,4.33,142.9
"2009-02-16 00:25:30",634000,3.905,192.1,6.337,0.965,5.224,101.6723,3.567,4.584,20.2,0,109.8,13.45,4.33,154.1
"2009-02-16 00:26:00",634001,6.609,201.9,7.071,0.824,8.2,101.669,3.558,4.654,20.28,0,109.8,13.45,4.32,163.9
"2009-02-16 00:26:30",634002,6.859,201.6,6.139,1.009,8.12,101.6708,3.563,4.694,20.35,0,109.8,13.45,4.33,163.6
"2009-02-16 00:27:00",634003,6.205,200.4,6.422,1.056,7.577,101.6598,3.535,4.608,20.27,0,109.8,13.45,4.30,162.4
"2009-02-16 00:27:30",634004,5.669,199.5,8.61,1.275,6.592,101.6607,3.537,4.59,20.21,0,109.8,13.45,4.30,161.5
"2009-02-16 00:28:00",634005,5.333,193,4.343,0.895,4.28,101.6616,3.539,4.387,19.96,0,109.8,13.45,4.30,155.0
"2009-02-16 00:28:30",634006,5.486,198.5,8.31,0.996,6.316,101.6616,3.539,4.564,20.07,0,109.8,13.45,4.30,160.5
"2009-02-16 00:29:00",634007,6.753,203.5,5.29,1.255,7.618,101.6616,3.539,4.651,20.18,0,109.8,13.45,4.30,165.5
"2009-02-16 00:29:30",634008,6.713,197.6,8.94,1.048,8.66,101.6616,3.539,4.663,20.09,0,109.8,13.46,4.30,159.6
"2009-02-16 00:30:00",634009,6.619,203.5,6.316,0.921,8.2,101.6616,3.539,4.633,20.06,0,109.8,13.46,4.30,165.5
"2009-02-16 00:30:30",634010,6.448,193.5,7.056,1.242,6.389,101.6616,3.539,4.578,20.04,0,109.8,13.46,4.30,155.5
"2009-02-16 00:31:00",634011,5.535,196.9,5.144,1.245,4.93,101.6571,3.528,4.544,20.15,0,109.8,13.46,4.29,158.9
"2009-02-16 00:31:30",634012,5.489,195.8,4.178,0.93,4.653,101.6579,3.53,4.491,19.92,0,109.8,13.46,4.29,157.8
"2009-02-16 00:32:00",634013,7.899,213.1,4.683,0.746,8.59,101.6613,3.538,4.613,19.88,0,109.7,13.46,4.30,175.1
"2009-02-16 00:32:30",634014,7.605,207.6,4.937,0.856,8.91,101.6616,3.539,4.668,19.91,0,109.8,13.47,4.30,169.6
"2009-02-16 00:33:00",634015,7.825,204.3,5.199,0.391,9.12,101.6616,3.539,4.671,19.92,0,109.8,13.47,4.30,166.3
"2009-02-16 00:33:30",634016,8.22,200.5,6.056,1.187,7.402,101.6616,3.539,4.615,19.85,0,109.8,13.47,4.30,162.5
"2009-02-16 00:34:00",634017,6.91,195.7,5.167,1.204,5.442,101.6616,3.539,4.617,19.83,0,109.8,13.47,4.30,157.7
"2009-02-16 00:34:30",634018,6.888,199.3,6.827,1.349,5.73,101.6613,3.538,4.523,19.78,0,109.8,13.47,4.30,161.3
"2009-02-16 00:35:00",634019,6.676,196.6,7.332,1.074,6.127,101.6571,3.528,4.59,19.87,0,109.8,13.47,4.29,158.6
"2009-02-16 00:35:30",634020,6.991,198.7,6.222,1.18,7.732,101.6441,3.494,4.647,19.96,0,109.8,13.47,4.26,160.7
"2009-02-16 00:36:00",634021,7.815,198.2,4.469,0.71,9.09,101.6294,3.457,4.692,20.04,0,109.8,13.47,4.22,160.2
"2009-02-16 00:36:30",634022,7.635,194.6,6.021,1.174,7.919,101.6294,3.457,4.688,20.08,0,109.8,13.47,4.22,156.6
"2009-02-16 00:37:00",634023,5.827,189.6,7.152,1.152,5.156,101.6331,3.467,4.518,19.98,0,109.8,13.47,4.23,151.6
"2009-02-16 00:37:30",634024,6.294,192.7,3.995,1.282,5.621,101.6334,3.467,4.421,19.97,0,109.8,13.47,4.23,154.7
"2009-02-16 00:38:00",634025,6.23,191.5,5.409,1.172,5.999,101.6106,3.409,4.586,20.21,0,109.8,13.47,4.17,153.5
"2009-02-16 00:38:30",634026,7.179,196.1,5.576,0.962,7.499,101.6124,3.414,4.523,20.23,0,109.8,13.47,4.18,158.1
"2009-02-16 00:39:00",634027,7.559,196.7,4.232,0.669,8.64,101.6119,3.412,4.599,20.4,0,109.7,13.47,4.18,158.7
"2009-02-16 00:39:30",634028,6.938,194.8,6.06,1.087,7.627,101.5919,3.361,4.527,20.44,0,109.8,13.47,4.13,156.8
"2009-02-16 00:40:00",634029,6.774,195.2,5.097,1.134,7.373,101.588,3.351,4.433,20.46,0,109.7,13.47,4.12,157.2
"2009-02-16 00:40:30",634030,5.894,190.1,5.358,1.143,4.981,101.566,3.295,4.375,20.55,0,109.7,13.47,4.06,152.1
"2009-02-16 00:41:00",634031,6.686,193,6.838,1.041,5.216,101.5595,3.279,4.243,20.62,0,109.7,13.47,4.04,155.0
"2009-02-16 00:41:30",634032,6.711,201.4,9.64,0.964,6.58,101.557,3.272,4.426,20.94,0,109.7,13.47,4.04,163.4
"2009-02-16 00:42:00",634033,6.995,206.5,13.25,1.085,8.13,101.5352,3.217,4.422,20.84,0,109.7,13.47,3.98,168.5
"2009-02-16 00:42:30",634034,5.493,224,7.601,0.933,7.945,101.5265,3.194,4.391,20.76,0,109.7,13.47,3.96,186.0
"2009-02-16 00:43:00",634035,5.53,210.1,10.03,1.301,7.318,101.5265,3.194,4.28,20.55,0,109.7,13.47,3.96,172.1
"2009-02-16 00:43:30",634036,3.731,234.2,25.12,2.009,3.656,101.5265,3.194,4.103,20.58,0,109.7,13.47,3.96,196.2
"2009-02-16 00:44:00",634037,4.461,214,15.46,1.713,4.714,101.5259,3.193,4.195,20.74,0,109.7,13.48,3.96,176.0
"2009-02-16 00:44:30",634038,6.953,194.4,9.83,1.304,6.327,101.5265,3.194,4.209,20.92,0,109.7,13.48,3.96,156.4
"2009-02-16 00:45:00",634039,7.977,208.2,6.294,0.941,7.948,101.518,3.173,4.358,21.07,0,109.7,13.48,3.94,170.2
"2009-02-16 00:45:30",634040,8.14,209,7.088,0.916,8.11,101.4951,3.114,4.34,21.06,0,109.7,13.48,3.88,171.0
"2009-02-16 00:46:00",634041,7.273,195.8,7.509,1.39,7.565,101.4925,3.108,4.247,21.12,0,109.7,13.48,3.87,157.8
"2009-02-16 00:46:30",634042,7.236,196.5,5.63,1.013,7.765,101.4959,3.116,4.25,21.19,0,109.7,13.48,3.88,158.5
"2009-02-16 00:47:00",634043,6.927,194.1,5.806,1.422,5.98,101.5202,3.178,4.165,21.1,0,109.7,13.48,3.94,156.1
"2009-02-16 00:47:30",634044,7.816,193.7,5.495,1.181,6.179,101.5262,3.194,4.23,21.28,0,109.7,13.48,3.96,155.7
"2009-02-16 00:48:00",634045,7.604,198.8,7.564,1.152,7.255,101.5265,3.194,4.266,21.35,0,109.7,13.48,3.96,160.8
"2009-02-16 00:48:30",634046,7.938,202.3,3.434,0.809,8.39,101.5256,3.192,4.358,21.43,0,109.7,13.48,3.96,164.3
"2009-02-16 00:49:00",634047,7.897,199.3,6.257,1.132,7.289,101.5265,3.194,4.245,21.33,0,109.7,13.49,3.96,161.3
"2009-02-16 00:49:30",634048,8.05,197.5,5.966,1.248,7.378,101.5265,3.194,4.35,21.5,0,109.7,13.49,3.96,159.5
"2009-02-16 00:50:00",634049,8.15,198.5,6.42,1.134,7.209,101.5282,3.199,4.245,21.55,0,109.7,13.48,3.96,160.5
"2009-02-16 00:50:30",634050,8.05,198,6.83,1.238,6.797,101.531,3.206,4.321,21.66,0,109.7,13.49,3.97,160.0
"2009-02-16 00:51:00",634051,8.15,203,5.911,1.115,7.349,101.5305,3.205,4.329,21.73,0,109.7,13.49,3.97,165.0
"2009-02-16 00:51:30",634052,7.857,198.7,6.306,1.316,6.567,101.5266,3.195,4.228,21.63,0,109.7,13.49,3.96,160.7
"2009-02-16 00:52:00",634053,8.11,198.4,6.493,1.332,7.109,101.5096,3.151,4.303,21.8,0,109.7,13.49,3.91,160.4
"2009-02-16 00:52:30",634054,7.827,201.2,5.204,1.168,7.37,101.5066,3.144,4.275,21.77,0,109.7,13.49,3.91,163.2
"2009-02-16 00:53:00",634055,8.15,203.2,5.168,1.055,7.884,101.5077,3.147,4.378,21.9,0,109.7,13.49,3.91,165.2
"2009-02-16 00:53:30",634056,8.42,202.6,5.282,1.17,7.122,101.5103,3.153,4.261,21.86,0,109.7,13.49,3.92,164.6
"2009-02-16 00:54:00",634057,8.05,202.5,5.958,1.169,7.364,101.51,3.152,4.255,21.84,0,109.7,13.49,3.92,164.5
"2009-02-16 00:54:30",634058,7.71,201.4,6.572,1.072,6.367,101.5123,3.158,4.198,21.81,0,109.7,13.49,3.92,163.4
"2009-02-16 00:55:00",634059,7.583,201.4,6.281,1.221,6.667,101.5132,3.16,4.213,21.84,0,109.7,13.49,3.92,163.4
"2009-02-16 00:55:30",634060,8.36,203.1,5.79,1.058,7.501,101.5161,3.168,4.278,21.91,0,109.7,13.49,3.93,165.1
"2009-02-16 00:56:00",634061,8.58,205,4.734,0.922,8.31,101.5172,3.171,4.32,22.02,0,109.7,13.49,3.93,167.0
"2009-02-16 00:56:30",634062,8.8,206.8,3.538,0.829,8.17,101.5181,3.173,4.334,22.04,0,109.7,13.49,3.94,168.8
"2009-02-16 00:57:00",634063,8.04,202.9,5.999,1.157,6.349,101.5192,3.176,4.273,21.96,0,109.7,13.49,3.94,164.9
"2009-02-16 00:57:30",634064,7.705,202,5.869,1.26,5.714,101.5189,3.175,4.186,21.91,0,109.7,13.49,3.94,164.0
"2009-02-16 00:58:00",634065,7.427,199.6,5.088,1.107,4.861,101.5215,3.182,4.076,21.82,0,109.7,13.49,3.94,161.6
"2009-02-16 00:58:30",634066,9.01,207.2,4.821,0.902,8.57,101.5212,3.181,4.319,22.05,0,109.7,13.49,3.94,169.2
"2009-02-16 00:59:00",634067,9.26,207.7,4.324,0.377,8.83,101.517,3.17,4.331,22.13,0,109.7,13.49,3.93,169.7
"2009-02-16 00:59:30",634068,9.01,209.1,3.576,0.776,8.68,101.5071,3.145,4.338,22.13,0,109.7,13.49,3.91,171.1
"2009-02-16 01:00:00",634069,9.02,209.4,2.88,0.74,8.22,101.5066,3.144,4.341,22.14,0,109.6,13.49,3.91,171.4
"2009-02-16 01:00:30",634070,8.81,211.1,3.558,0.758,7.74,101.5086,3.149,4.31,22.12,0,109.7,13.49,3.91,173.1
"2009-02-16 01:01:00",634071,8.64,212.9,3.838,0.674,7.444,101.5077,3.147,4.287,22.06,0,109.7,13.49,3.91,174.9
"2009-02-16 01:01:30",634072,6.449,200.3,0.594,0.041,3.144,101.5106,3.154,4.026,21.78,0,109.7,13.53,3.92,162.3
"2009-02-16 01:02:00",634073,7.17,205.2,6.63,1.152,5.457,101.5126,3.159,4.196,21.94,0,109.7,13.5,3.92,167.2
"2009-02-16 01:02:30",634074,8.49,210.2,5.822,1.032,7.419,101.5182,3.173,4.207,21.96,0,109.7,13.5,3.94,172.2
"2009-02-16 01:03:00",634075,8.86,213.4,3.619,0.668,9.07,101.5241,3.188,4.36,22.07,0,109.7,13.5,3.95,175.4
"2009-02-16 01:03:30",634076,8.59,213.4,3.504,0.845,8.66,101.527,3.196,4.365,22.09,0,109.7,13.5,3.96,175.4
"2009-02-16 01:04:00",634077,8.74,212.9,4.326,0.561,8.35,101.527,3.196,4.381,22.06,0,109.7,13.5,3.96,174.9
"2009-02-16 01:04:30",634078,7.442,208.7,5.916,1.234,6.076,101.527,3.196,4.32,22,0,109.7,13.5,3.96,170.7
"2009-02-16 01:05:00",634079,7.381,209.2,6.529,1.207,5.846,101.527,3.196,4.156,21.81,0,109.7,13.5,3.96,171.2
"2009-02-16 01:05:30",634080,7.175,208.5,6.285,1.192,5.793,101.5278,3.198,4.268,21.89,0,109.7,13.5,3.96,170.5
"2009-02-16 01:06:00",634081,8.1,213.4,5.65,1.104,7.801,101.5315,3.207,4.357,21.97,0,109.7,13.5,3.97,175.4
"2009-02-16 01:06:30",634082,8.43,215,4.654,0.652,8.59,101.5442,3.24,4.432,22.03,0,109.7,13.5,4.00,177.0
"2009-02-16 01:07:00",634083,8.09,214.7,5.367,0.942,8.18,101.5547,3.266,4.441,21.98,0,109.7,13.5,4.03,176.7
"2009-02-16 01:07:30",634084,7.918,214,5.41,1.112,7.636,101.5601,3.28,4.37,21.9,0,109.7,13.5,4.04,176.0
"2009-02-16 01:08:00",634085,6.812,208.5,5.777,1.114,5.57,101.5606,3.281,4.301,21.83,0,109.7,13.5,4.04,170.5
"2009-02-16 01:08:30",634086,6.2,208.3,4.429,0.826,4.625,101.5612,3.283,4.281,21.76,0,109.7,13.5,4.05,170.3
"2009-02-16 01:09:00",634087,7.303,215,6.095,1.127,7.248,101.5623,3.286,4.404,21.82,0,109.7,13.5,4.05,177.0
"2009-02-16 01:09:30",634088,7.598,217.3,5.608,1.046,7.862,101.5697,3.305,4.404,21.77,0,109.7,13.51,4.07,179.3
"2009-02-16 01:10:00",634089,7.728,217.8,4.774,0.946,8.33,101.5782,3.326,4.445,21.85,0,109.7,13.5,4.09,179.8
"2009-02-16 01:10:30",634090,7.038,215.9,5.999,1.237,7.157,101.5811,3.334,4.429,21.81,0,109.7,13.51,4.10,177.9
"2009-02-16 01:11:00",634091,6.809,216,6.358,1.241,6.653,101.5854,3.345,4.423,21.76,0,109.7,13.51,4.11,178.0
"2009-02-16 01:11:30",634092,6.091,215.2,5.833,1.13,5.715,101.5905,3.358,4.413,21.75,0,109.7,13.5,4.12,177.2
"2009-02-16 01:12:00",634093,7.22,219,5.25,1.072,7.594,101.595,3.369,4.461,21.78,0,109.7,13.5,4.13,181.0
"2009-02-16 01:12:30",634094,7.111,220.4,5.641,1.094,7.486,101.6013,3.385,4.401,21.68,0,109.7,13.5,4.15,182.4
"2009-02-16 01:13:00",634095,6.887,220.6,6.068,1.173,7.674,101.6044,3.393,4.465,21.75,0,109.7,13.5,4.16,182.6
"2009-02-16 01:13:30",634096,7.102,220.1,6.059,1.097,7.858,101.6087,3.404,4.477,21.76,0,109.7,13.5,4.17,182.1
"2009-02-16 01:14:00",634097,7.071,219,6.218,1.146,7.56,101.6107,3.409,4.482,21.76,0,109.7,13.5,4.17,181.0
"2009-02-16 01:14:30",634098,6.731,217.9,6.323,1.189,6.785,101.6096,3.406,4.421,21.74,0,109.7,13.5,4.17,179.9
"2009-02-16 01:15:00",634099,6.632,217.5,6.307,1.153,6.399,101.6104,3.409,4.428,21.75,0,109.7,13.5,4.17,179.5
"2009-02-16 01:15:30",634100,6.023,215.1,5.924,1.141,5.855,101.6064,3.398,4.439,21.74,0,109.7,13.5,4.16,177.1
"2009-02-16 01:16:00",634101,6.886,217.9,6.104,1.172,7.007,101.6099,3.407,4.426,21.68,0,109.7,13.5,4.17,179.9
"2009-02-16 01:16:30",634102,6.689,217.5,6.289,1.233,6.993,101.6105,3.409,4.469,21.75,0,109.7,13.51,4.17,179.5
"2009-02-16 01:17:00",634103,7.167,218.3,5.891,1.054,7.395,101.6105,3.409,4.505,21.81,0,109.7,13.51,4.17,180.3
"2009-02-16 01:17:30",634104,7.236,216.7,5.896,1.026,7.658,101.6077,3.402,4.482,21.82,0,109.7,13.51,4.17,178.7
"2009-02-16 01:18:00",634105,6.992,217.3,6.094,1.058,7.103,101.6049,3.394,4.379,21.76,0,109.7,13.51,4.16,179.3
"2009-02-16 01:18:30",634106,5.819,213,5.025,0.987,5.184,101.6043,3.393,4.429,21.81,0,109.7,13.51,4.16,175.0
"2009-02-16 01:19:00",634107,7.03,218.1,6.711,1.146,7.391,101.6032,3.39,4.477,21.9,0,109.7,13.51,4.15,180.1
"2009-02-16 01:19:30",634108,7.792,217.2,5.287,0.799,8.14,101.5995,3.381,4.441,21.92,0,109.7,13.51,4.14,179.2
"2009-02-16 01:20:00",634109,7.501,215.4,5.984,1.113,7.798,101.5947,3.369,4.519,22.05,0,109.7,13.51,4.13,177.4
"2009-02-16 01:20:30",634110,7.636,214.8,5.507,1.144,7.637,101.5911,3.359,4.534,22.11,0,109.7,13.51,4.12,176.8
"2009-02-16 01:21:00",634111,7.522,215.2,5.896,1.153,7.151,101.5919,3.361,4.424,22.07,0,109.7,13.51,4.13,177.2
"2009-02-16 01:21:30",634112,7.403,216,6.25,1.138,6.501,101.5922,3.362,4.344,22,0,109.7,13.51,4.13,178.0
"2009-02-16 01:22:00",634113,6.861,212.8,5.892,1.149,5.903,101.5798,3.33,4.384,22.09,0,109.7,13.51,4.09,174.8
"2009-02-16 01:22:30",634114,7.221,215.7,7.249,1.257,6.545,101.5699,3.305,4.39,22.1,0,109.7,13.51,4.07,177.7
"2009-02-16 01:23:00",634115,7.641,218.9,5.995,1.166,7.628,101.5608,3.282,4.407,22.2,0,109.7,13.52,4.05,180.9
"2009-02-16 01:23:30",634116,8.06,221.9,4.806,0.934,8.47,101.5606,3.281,4.456,22.26,0,109.7,13.52,4.04,183.9
"2009-02-16 01:24:00",634117,8.11,224,3.374,0.772,8.3,101.5611,3.283,4.481,22.29,0,109.7,13.52,4.05,186.0
"2009-02-16 01:24:30",634118,7.507,220,6.621,1.116,6.249,101.5611,3.283,4.377,22.25,0,109.7,13.52,4.05,182.0
"2009-02-16 01:25:00",634119,8.48,224.3,5.259,1.114,7.163,101.5558,3.269,4.305,22.32,0,109.7,13.51,4.03,186.3
"2009-02-16 01:25:30",634120,8.77,222.9,6.013,1.1,7.018,101.5399,3.229,4.279,22.43,0,109.6,13.51,3.99,184.9
"2009-02-16 01:26:00",634121,8.65,222.2,5.711,1.171,7.275,101.5275,3.197,4.334,22.59,0,109.6,13.52,3.96,184.2
"2009-02-16 01:26:30",634122,8.88,226.1,3.975,0.885,8.56,101.5275,3.197,4.414,22.68,0,109.6,13.52,3.96,188.1
"2009-02-16 01:27:00",634123,9.23,227.7,3.633,0.517,8.86,101.5275,3.197,4.372,22.67,0,109.7,13.52,3.96,189.7
"2009-02-16 01:27:30",634124,9.38,226.3,3.566,0.844,8.37,101.5275,3.197,4.415,22.75,0,109.7,13.52,3.96,188.3
"2009-02-16 01:28:00",634125,9.66,226.7,3.311,0.445,8.05,101.5238,3.188,4.383,22.83,0,109.6,13.52,3.95,188.7
"2009-02-16 01:28:30",634126,9.52,227.5,2.815,0.62,8.18,101.5105,3.154,4.346,22.85,0,109.7,13.52,3.92,189.5
"2009-02-16 01:29:00",634127,8.48,224,6.346,1.246,6.049,101.5026,3.133,4.208,22.7,0,109.7,13.52,3.90,186.0
"2009-02-16 01:29:30",634128,8.17,222.8,6.401,1.178,5.702,101.4964,3.118,4.166,22.66,0,109.7,13.51,3.88,184.8
"2009-02-16 01:30:00",634129,8.84,226.5,6.06,1.156,7.703,101.4935,3.11,4.339,22.86,0,109.7,13.51,3.87,188.5
"2009-02-16 01:30:30",634130,9.23,231.2,3.555,0.866,9.03,101.4935,3.11,4.343,22.91,0,109.6,13.52,3.87,193.2
"2009-02-16 01:31:00",634131,9.35,231.3,3.857,0.565,8.67,101.4935,3.11,4.335,22.89,0,109.7,13.52,3.87,193.3
"2009-02-16 01:31:30",634132,9.36,231.5,3.396,0.61,8.65,101.4935,3.11,4.339,22.92,0,109.6,13.52,3.87,193.5
"2009-02-16 01:32:00",634133,9.66,229.7,3.658,0.569,8.11,101.4935,3.11,4.336,22.94,0,109.7,13.51,3.87,191.7
"2009-02-16 01:32:30",634134,9.66,230,3.612,0.8,7.949,101.4935,3.11,4.327,23,0,109.6,13.51,3.87,192.0
"2009-02-16 01:33:00",634135,9.22,234.7,3.35,0.853,7.876,101.4933,3.11,4.31,23,0,109.6,13.52,3.87,196.7
"2009-02-16 01:33:30",634136,9.28,231.8,3.807,0.775,7.901,101.4865,3.092,4.299,23.04,0,109.7,13.52,3.86,193.8
"2009-02-16 01:34:00",634137,9.25,233.5,2.201,0.779,7.593,101.478,3.071,4.278,23.05,0,109.6,13.52,3.83,195.5
"2009-02-16 01:34:30",634138,9.32,235.5,2.859,0.774,7.656,101.474,3.06,4.285,23.11,0,109.6,13.52,3.82,197.5
"2009-02-16 01:35:00",634139,9.17,235.4,2.721,0.811,7.591,101.4678,3.045,4.275,23.14,0,109.6,13.52,3.81,197.4
"2009-02-16 01:35:30",634140,9.18,236.4,3.23,0.759,7.864,101.4599,3.024,4.272,23.19,0,109.6,13.52,3.79,198.4
"2009-02-16 01:36:00",634141,9.16,237.7,1.918,0.75,7.606,101.4627,3.032,4.261,23.18,0,109.6,13.52,3.79,199.7
"2009-02-16 01:36:30",634142,9.06,236.5,2.666,0.859,7.512,101.4678,3.045,4.259,23.25,0,109.6,13.52,3.81,198.5
"2009-02-16 01:37:00",634143,8.95,236.7,2.894,0.784,7.389,101.4624,3.031,4.249,23.26,0,109.7,13.52,3.79,198.7
"2009-02-16 01:37:30",634144,8.75,237.4,2.369,0.781,7.444,101.4596,3.024,4.242,23.18,0,109.6,13.52,3.79,199.4
"2009-02-16 01:38:00",634145,8.83,237.6,3.007,0.633,7.228,101.4596,3.024,4.241,23.17,0,109.6,13.52,3.79,199.6
"2009-02-16 01:38:30",634146,8.6,239.1,3.037,0.751,7.139,101.4596,3.024,4.24,23.18,0,109.6,13.52,3.79,201.1
"2009-02-16 01:39:00",634147,8.45,237,2.382,0.848,7.064,101.4593,3.023,4.21,23.16,0,109.6,13.52,3.79,199.0
"2009-02-16 01:39:30",634148,8.15,235.6,4.768,1.004,6.621,101.4528,3.006,4.176,23.09,0,109.6,13.52,3.77,197.6
"2009-02-16 01:40:00",634149,6.224,224.3,0.793,0.108,2.963,101.444,2.984,3.913,22.85,0,109.6,13.55,3.75,186.3
"2009-02-16 01:40:30",634150,6.221,225.3,3.338,0.513,3.965,101.4276,2.942,3.945,22.85,0,109.6,13.53,3.70,187.3
"2009-02-16 01:41:00",634151,8.22,236,3.753,0.792,8.32,101.4257,2.937,4.101,22.98,0,109.6,13.53,3.70,198.0
"2009-02-16 01:41:30",634152,8.14,235.7,3.353,0.807,8.82,101.4257,2.937,4.178,23.1,0,109.7,13.53,3.70,197.7
"2009-02-16 01:42:00",634153,8.31,236.6,3.718,0.683,8.88,101.4257,2.937,4.175,23.14,0,109.6,13.53,3.70,198.6
"2009-02-16 01:42:30",634154,8.11,236.8,4.009,0.695,8.56,101.4257,2.937,4.157,23.11,0,109.6,13.53,3.70,198.8
"2009-02-16 01:43:00",634155,8.24,237.4,3.207,0.648,8.11,101.4282,2.944,4.177,23.21,0,109.6,13.53,3.71,199.4
"2009-02-16 01:43:30",634156,8,237.7,2.738,0.774,7.936,101.428,2.943,4.164,23.2,0,109.6,13.53,3.71,199.7
"2009-02-16 01:44:00",634157,8.24,238.4,3.026,0.712,7.676,101.4268,2.94,4.149,23.28,0,109.6,13.53,3.70,200.4
"2009-02-16 01:44:30",634158,7.949,238.5,2.469,0.759,7.404,101.4285,2.944,4.159,23.26,0,109.6,13.52,3.71,200.5
"2009-02-16 01:45:00",634159,7.472,235.8,6.156,1.075,6.731,101.4305,2.949,4.134,23.17,0,109.6,13.52,3.71,197.8
"2009-02-16 01:45:30",634160,6.331,228.7,5.416,1.013,4.111,101.4317,2.952,3.869,22.86,0,109.6,13.52,3.71,190.7
"2009-02-16 01:46:00",634161,5.377,226.9,2.031,0.171,3.33,101.4314,2.952,3.885,22.87,0,109.6,13.55,3.71,188.9
"2009-02-16 01:46:30",634162,7.462,239.1,4.809,0.908,8.09,101.4328,2.955,4.116,23.13,0,109.6,13.52,3.72,201.1
"2009-02-16 01:47:00",634163,7.585,240.8,4.139,0.76,8.77,101.434,2.958,4.157,23.2,0,109.6,13.53,3.72,202.8
"2009-02-16 01:47:30",634164,7.506,237.4,3.673,0.769,8.51,101.4354,2.962,4.157,23.2,0,109.6,13.53,3.72,199.4
"2009-02-16 01:48:00",634165,7.37,242.6,7.095,0.541,8.31,101.4366,2.965,4.146,23.19,0,109.6,13.52,3.73,204.6
"2009-02-16 01:48:30",634166,7.544,236.9,8.75,0.85,7.685,101.423,2.93,4.161,23.5,0,109.6,13.52,3.69,198.9
"2009-02-16 01:49:00",634167,6.429,235.3,8.13,1.261,5.686,101.3836,2.83,3.968,23.79,0,109.6,13.53,3.59,197.3
"2009-02-16 01:49:30",634168,5.467,226,4.377,0.498,2.786,101.3468,2.736,3.743,23.8,0,109.6,13.56,3.50,188.0